Weather in Veidelevka

Russia / Belgorod Oblast     50°08′49″N   38°26′40″E
temp.,
°C
wind,
m/s
gust,
m/s
humid.,
%
clouds,
%
prec.,
mm/h
press.,
hPa
HPBL,
m
24 january, mon
mon2400:00−6nne81693100 0.1 1024547
03:00−6ne81493100 0.3 1024479
06:00−6ne71395100 0.4 1024456
09:00−6ne71392100 0.7 1025480
12:00−6ne61291100 0.0 1026563
15:00−7ne61191100 0.0 1026492
18:00−8ne51094100 0.0 1026298
21:00−10ne4996100 0.1 1027204
25 january, tue
tue2500:00−13ne3797100 0.1 1026107
03:00−12ne3597100 0.1 1026119
06:00−10ne3596100 0.4 1025141
09:00−9ne2396100 1.5 1024125
12:00−7ese1292100 0.1 1024195
15:00−6w1192100 0.2 1022206
18:00−11ese0099100 0.0 102210
21:00−11ssw1198100 0.1 102210
26 january, wed
wed2600:00−10sw2297100 0.1 102142
03:00−11wsw2398100 0.2 102063
06:00−8wsw2597100 0.1 1019163
09:00−7ssw1397100 0.1 1019122
12:00−6ssw3595100 0.1 1019254
15:00−6ssw259591 0.1 1019332
18:00−10s229895 0.1 102045
21:00−8ssw2396100 0.1 102182
27 january, thu
thu2700:00−9ssw129893 0.1 102126
03:00−11ssw1110098 0.1 102113
06:00−16ssw1110097 0.0 10219
09:00−16ssw11100100 0.0 102111
12:00−9sw229593 0.1 1021161
15:00−8ssw239531 0.1 1019118
18:00−15ssw1110072 0.0 10209
21:00−16ssw2210092 0.0 101910
28 january, fri
fri2800:00−16s2210096 0.0 101918
03:00−17ssw24100100 0.0 101844
06:00−15s3710099 0.0 101692
09:00−11s51395100 0.1 1015271
12:00−6s61495100 0.3 1012421
15:00−2ssw71597100 1.7 1010794
18:000sw71398100 1.5 1008714
21:000sw6129699 2.1 1008609